Regional Weather Roundup
Issued by NWS

Home | Current Version | Previous Version | Text Only | Print | Product List | Glossary On
Versions: 1 2 3 4 5 6 7 8 9 10 11 12 13 14 15 16 17 18 19 20 21 22 23 24 25 26 27 28 29 30 31 32 33 34 35 36 37 38 39 40 41 42 43 44 45 46 47 48 49 50
000
ASUS43 KLSX 250710
RWRMO

WEATHER SUMMARY FOR MISSOURI
NATIONAL WEATHER SERVICE SPRINGFIELD MO
200 AM CDT THU AUG 25 2016

NOTE: "FAIR" INDICATES FEW OR NO CLOUDS BELOW 12,000 FEET WITH NO
       SIGNIFICANT WEATHER AND/OR OBSTRUCTIONS TO VISIBILITY.
       CURRENT SKY AND/OR WEATHER CONDITIONS ARE NOT AVAILABLE FOR
       CHILLICOTHE AND FARMINGTON.

MOZ001>031-035>038-043-044-053-054-250800-
...NORTHERN AND WESTERN MISSOURI...

CITY           SKY/WX    TMP DP  RH WIND       PRES   REMARKS
KANSAS CTY INT CLOUDY    71  68  90 SE3       30.02S
KANSAS C DTWN  CLOUDY    72  69  90 CALM      30.01F
LEE`S SUMMIT   CLOUDY    70  68  93 SE7       30.05R THUNDER
ST JOSEPH      CLOUDY    71  69  93 N6        30.03R
CHILLICOTHE      N/A     70  68  93 CALM      30.03F
KIRKSVILLE     CLOUDY    71  69  93 SE3       30.01F

$$
MOZ066>068-077>081-088>096-101>105-250800-
...SOUTHWEST MISSOURI...

CITY           SKY/WX    TMP DP  RH WIND       PRES   REMARKS
SPRINGFIELD    CLEAR     74  67  78 S7        30.07F
JOPLIN         CLEAR     78  67  68 S15       30.05F
BRANSON        CLEAR     73  68  83 SW5       30.10F

$$
MOZ032>034-039>042-045>050-055>058-069>072-250800-
...CENTRAL MISSOURI...

CITY           SKY/WX    TMP DP  RH WIND       PRES   REMARKS
COLUMBIA       PTCLDY    70  68  93 CALM      30.06F
JEFFERSON CITY CLEAR     74  67  78 NW3       30.06F
ROLLA          CLEAR     74  70  87 SW8       30.06F
SEDALIA        CLOUDY    71  69  93 SE3       30.06S
WHITEMAN AFB   MOCLDY    70  70 100 CALM      30.03F
OSAGE BEACH    CLEAR     74  71  91 CALM      30.07R

$$
MOZ051-052-059>065-250800-
...EAST CENTRAL MISSOURI...

CITY           SKY/WX    TMP DP  RH WIND       PRES   REMARKS
ST LOUIS INTL  PTCLDY    83  72  69 W13       30.04S
SPIRIT OF STL  CLEAR     80  74  81 SW8       30.02S
ST CHARLES     MOCLDY    78  75  90 W7        30.04R

$$
MOZ072>076-082>087-097>100-106>115-250800-
...SOUTH CENTRAL AND SOUTHEAST MISSOURI...

CITY           SKY/WX    TMP DP  RH WIND       PRES   REMARKS
CAPE GIRARDEAU CLEAR     75  72  90 SW6       30.06S
FARMINGTON     CLEAR     75  72  90 CALM      30.08S
POPLAR BLUFF   CLEAR     76  74  93 CALM      30.06S
WEST PLAINS    CLEAR     73  68  84 SW5       30.13R

$$



USA.gov is the U.S. government's official web portal to all federal, state and local government web resources and services.